Location: Utrecht
(52.0830°N, 5.1330°E)
Time: 08:27:14
(UTC+02:00)

Daily predictions for brighter satellites

Satellite Brightness Start Highest point End
(mag) Time Altitude Azimuth Time Altitude Azimuth Time Altitude Azimuth
SPOT 1/Viking Rocket 3.6 22:24:03 10° SSE 22:29:13 76° ENE 22:34:23 10° NNW
Cosmos 1238 4.4 22:27:10 10° S 22:30:09 50° E 22:33:08 10° NNE
Cosmos 1346 Rocket 4.1 22:27:35 10° SE 22:30:43 23° E 22:33:53 10° NE
SeaSat 1 3.2 22:26:47 10° S 22:31:34 50° WSW 22:36:24 10° NW
ATLAS 3B R/B 3.8 22:25:58 10° SSE 22:32:14 28° ESE 22:38:22 10° ENE
CZ-4B R/B 3.7 22:29:22 10° NNE 22:34:18 53° E 22:39:21 10° S
Cosmos 2237 Rocket 4.1 22:29:59 10° WSW 22:35:09 36° NW 22:40:21 10° NNE
Cosmos-2242 4.3 22:36:12 10° N 22:40:02 28° ENE 22:43:52 10° SE
Tsikada Rocket 4.2 22:34:36 10° S 22:41:02 87° WNW 22:47:27 10° N
Lacrosse 4 Rocket 3.0 22:38:41 10° SSE 22:41:15 16° ESE 22:43:52 10° ENE
USA 234 3.8 22:39:40 10° SE 22:46:01 50° SW 22:52:24 10° WNW
Aureole 2 Rocket 3.6 22:43:27 10° SW 22:47:06 48° WNW 22:50:25 10° NNE
Cosmos 2369 Rocket 2.3 22:44:48 10° NNW 22:50:31 76° WSW 22:56:08 10° SSE
SAR-Lupe-2 4.2 22:48:11 10° SE 22:51:32 43° ENE 22:54:59 10° N
ARGOS 3.2 22:47:53 10° SSE 22:53:20 87° WSW 22:58:48 10° NNW
DELTA 2 DEB (DPAF) 4.2 22:52:01 10° SSE 22:56:30 80° ENE 23:01:02 10° NNW
Cosmos 1766 3.5 22:57:00 10° N 23:00:59 59° ENE 23:04:35 12° SSE
Atlas Centaur 2 4.5 22:57:18 10° SSW 23:01:15 14° S 23:04:46 11° SSE
Cosmos 1758 Rocket 4.0 22:58:42 10° SSE 23:02:54 45° E 23:07:04 10° NNE
SL-16 R/B 3.6 22:58:04 10° WSW 23:03:25 42° NW 23:08:49 10° NNE
CARTOSAT-1 3.8 23:02:54 12° SSE 23:06:51 62° ENE 23:11:09 10° N
NOAA 11 4.4 23:03:00 10° S 23:08:26 74° WSW 23:13:53 10° NNW
Cosmos 1634 Rocket 4.3 23:07:35 10° NNW 23:13:43 68° W 23:19:49 10° S
Cosmos 2263 4.4 23:10:27 10° NW 23:16:02 67° WSW 23:21:05 13° SSE
Cosmos 407 Rocket 3.8 23:11:46 10° S 23:16:48 48° ESE 23:21:49 10° NE
Meteor 1-22 Rocket 4.5 23:14:14 10° NNW 23:19:43 69° W 23:25:25 10° S
CZ-4 R/B 4.0 23:15:05 10° NNE 23:20:05 90° E 23:25:07 10° SSW
Cosmos 1825 Rocket 3.7 23:16:05 10° SSW 23:20:32 78° WNW 23:25:00 10° N
SL-8 R/B 3.9 23:18:07 10° W 23:22:51 54° S 23:27:34 10° ESE
COSMOS 2455 2.9 23:19:13 10° SW 23:25:14 87° SE 23:31:19 10° NE
CZ-4C R/B 4.0 23:22:55 11° S 23:26:58 53° W 23:30:55 10° NNW
Cosmos 2208 Rocket 4.3 23:21:57 10° NNW 23:27:06 57° ENE 23:31:19 15° SE
Cosmos 1842 Rocket 4.3 23:23:13 10° N 23:27:22 41° ENE 23:30:33 16° SE
ATLAS CENTAUR R/B 4.2 23:24:58 10° W 23:29:20 28° NNW 23:33:38 10° NE
Cosmos 1470 4.3 23:26:15 10° NNE 23:29:32 25° ENE 23:32:08 13° ESE
Cosmos 1066 Rocket 4.5 23:26:22 10° SSW 23:32:05 77° WNW 23:37:58 10° N
Cosmos 1603 4.5 23:26:47 10° SW 23:32:17 56° NW 23:37:50 10° NNE
Cosmos 1805 3.5 23:30:25 10° N 23:34:20 59° ENE 23:37:04 19° SSE
Landsat 7 4.3 23:30:58 12° S 23:35:21 58° W 23:40:04 10° NNW
Cosmos 1954 Rocket 4.5 23:31:53 13° S 23:36:13 43° ESE 23:41:14 10° NE
Spot 4 3.8 23:32:43 16° SSE 23:36:37 90° WNW 23:41:27 10° NNW
Cosmos 2279 Rocket 4.2 23:31:08 10° NNW 23:37:23 75° W 23:43:08 12° S
Cosmos 1953 2.3 23:36:43 10° N 23:40:44 83° E 23:43:32 19° SSE
SL-27 R/B 3.4 23:40:00 21° SE 23:41:22 28° ESE 23:44:19 10° NE
ISS -2.8 23:39:12 10° SW 23:42:12 35° SSE 23:45:14 10° E
Lacrosse 5 rocket 2.6 23:42:23 10° W 23:46:17 45° N 23:50:24 10° ENE
Lacrosse 5 2.9 23:43:01 10° WNW 23:47:57 48° N 23:52:52 10° E
Cosmos 1340 4.4 23:48:36 16° ESE 23:50:07 20° E 23:52:53 10° NE
Terra 2.2 23:47:15 15° S 23:51:09 58° WSW 23:55:52 10° NNW
